Starlink 2643

operational
NORAD ID: 48367 Int'l Des: 2021-038 Owner: SPXS Country: US Constellation: starlink
LEOCIRCULARSTARLINK_TYPE

关于 Starlink 2643

正在加载描述...

实时位置

正在加载3D地球...

即将过境

高度历史

Altitude vs Time

uPlot chart will show altitude changes over time

两行轨道根数

1 48367U 21038Q 25343.47454193 .00007285 00000-0 50732-3 0 9998
2 48367 53.0547 36.6080 0001360 113.6549 246.4582 15.06411620253564
Epoch: Dec 9, 2025 • Age: 8 hours

当前状态

高度 550.7 km
速度 7.59 km/s
星下点 -10.88°S, 18.72°E
发射日期 May 4, 2021
运行时间 4.5 years
类型 internet

技术详情

分类 Payload
质量 260.00 kg
干质量 248.00 kg
总质量 260.00 kg
长度 0.20 m
直径 2.80 m
跨度 9.00 m
形状 Box + pan
制造商 SPXS
平台类型 Starlink
阶段状态 In Orbit
所有者/国家 SPXS/US

大型星座

Loading constellations...